Location: Athabasca
(54.7194°N, 113.2858°W)
Time: 11:56:26
(UTC+00:00)

PRISM - Visible Passes

Search period start: 30 November 2023 00:00
Search period end: 10 December 2023 00:00
Orbit: 523 x 543 km, 98.2° (Epoch: 29 November)

Date Brightness Start Highest point End Pass type
(mag) Time Alt. Az. Time Alt. Az. Time Alt. Az.
30 Nov ? 00:42:22 14° NE 00:42:22 14° NE 00:43:39 10° NNE visible
30 Nov ? 02:17:44 21° NNW 02:17:44 21° NNW 02:19:07 10° NNW visible
01 Dec ? 00:32:54 12° NE 00:32:54 12° NE 00:33:46 10° NNE visible
01 Dec ? 02:08:16 20° N 02:08:16 20° N 02:09:35 10° NNW visible
02 Dec ? 00:23:24 10° NE 00:23:24 10° NE 00:23:33 10° NE visible
02 Dec ? 01:58:45 19° N 01:58:45 19° N 02:00:00 10° N visible
03 Dec ? 01:49:12 18° N 01:49:12 18° N 01:50:21 10° N visible
03 Dec ? 14:44:35 10° NE 14:47:45 23° E 14:50:51 10° SSE visible
04 Dec ? 01:39:36 17° N 01:39:36 17° N 01:40:39 10° N visible
04 Dec ? 14:35:10 10° NE 14:38:00 19° E 14:40:48 10° SE visible
05 Dec ? 01:29:56 16° N 01:29:56 16° N 01:30:53 10° N visible
05 Dec ? 14:25:50 10° NE 14:28:12 16° E 14:30:34 10° SE visible
06 Dec ? 01:20:14 15° NNE 01:20:14 15° NNE 01:21:04 10° N visible
06 Dec ? 02:55:35 10° NNW 02:55:35 10° NNW 02:55:39 10° NNW visible
06 Dec ? 14:16:37 10° ENE 14:18:21 13° E 14:20:05 10° ESE visible
07 Dec ? 01:10:30 13° NNE 01:10:30 13° NNE 01:11:09 10° N visible
07 Dec ? 02:45:50 11° NNW 02:45:50 11° NNW 02:45:58 10° NNW visible
07 Dec ? 14:08:15 10° E 14:08:27 10° E 14:08:40 10° E visible
08 Dec ? 01:00:42 12° NNE 01:00:42 12° NNE 01:01:10 10° NNE visible
08 Dec ? 02:36:03 11° NNW 02:36:03 11° NNW 02:36:13 10° NNW visible
09 Dec ? 00:50:52 11° NNE 00:50:52 11° NNE 00:51:04 10° NNE visible
09 Dec ? 02:26:12 11° NNW 02:26:12 11° NNW 02:26:24 10° NNW visible
